Aviation Digital Data Service (ADDS)

Output produced by METARs form (1100 UTC 30 April 2017)
found at http://www.aviationweather.gov/adds/metars/
 
LECO 301030Z 29011G27KT 260V350 9000 SHRA FEW015 BKN030CB 08/05 Q1008 TEMPO 4000 SHGR SCT030CB
TAF LECO 300800Z 3009/0109 26009KT 9999 SCT025 SCT040 TX12/3015Z TN05/0103Z 
     TEMPO 3009/3018 29015G25KT RA SHRA SCT025TCU 
     PROB40 
     TEMPO 3009/3018 29020G35KT 
     PROB30 
     TEMPO 3009/3013 3000 TSRAGR BKN014 SCT020CB
       
LEAB 301000Z 25019KT 9999 FEW035 14/05 Q1014 NOSIG
TAF LEAB 300800Z 3009/3018 26010KT 9999 SCT030 
     TEMPO 3009/3018 26015G30KT
       
LERI 301000Z VRB02KT 9999 FEW025 20/12 Q1013 NOSIG
TAF LERI 300800Z 3009/3018 VRB02KT 9999 FEW035 
     BECMG 3010/3013 20010KT 
     TEMPO 3016/3018 27008KT
       
LEAL 301030Z 20007KT 120V260 9999 FEW020 21/12 Q1013 NOSIG
TAF LEAL 300500Z 3006/0106 VRB04KT 9999 BKN020 BKN030 TX24/3012Z TN11/3006Z 
     TEMPO 3006/3012 24008KT 
     BECMG 3010/3012 18015G25KT 
     BECMG 3020/3023 32012KT
       
LEAM 301030Z 23019KT 9999 FEW010 SCT025 18/15 Q1015
TAF LEAM 300800Z 3009/0109 23018KT 9999 SCT015 SCT025 TX20/3014Z TN14/0104Z 
     TEMPO 3011/3020 23022G32KT 
     BECMG 3020/3024 32006KT 
     BECMG 0103/0107 12010KT
       
LEGA 301000Z 33006KT 270V360 9999 FEW020 SCT030 15/08 Q1017
TAF LEGA 300800Z 3009/3018 34008KT 9999 SCT020 SCT040
       
LEAS 301030Z 30016G27KT 270V330 9999 SCT025TCU SCT040 11/06 Q1005 TEMPO 3000 SHRA BKN020TCU
TAF LEAS 300800Z 3009/0109 26015G25KT 9999 SCT025 BKN045 TX12/3015Z TN06/0103Z 
     TEMPO 3009/3019 29020G35KT 3000 RA SHRA SCT030TCU 
     PROB40 
     TEMPO 3009/3016 3000 TSRAGR BKN014 BKN025CB 
     PROB40 
     TEMPO 3009/3015 30025G43KT 
     BECMG 3021/3024 20009KT
       
LEMD 301030Z 21016G33KT 9999 SCT035 13/05 Q1011 R88/19//95 NOSIG
TAF LEMD 300500Z 3006/0112 22012KT 9999 SCT030 TX14/3016Z TN05/0106Z 
     PROB30 
     TEMPO 3006/3009 3000 BR BKN010 
     TEMPO 3009/3019 22020G30KT 
     TEMPO 3011/3020 4000 RA BR BKN012 
     BECMG 3017/3019 28010KT
       
LEBL 301030Z 21013KT 9999 FEW020 SCT049 17/14 Q1011 NOSIG
TAF LEBL 300500Z 3006/0106 22012KT 9999 FEW020 BKN030 TX19/3012Z TN12/3006Z 
     PROB30 
     TEMPO 3020/3024 SHRA BKN020 FEW025TCU 
     TEMPO 3006/3011 20012G22KT 
     TEMPO 3021/3024 30012KT 
     BECMG 0101/0103 VRB03KT
       
LEBB 301030Z 32018G31KT 290V350 8000 -RA FEW015 SCT030 BKN045 10/07 Q1006 TEMPO 3000 SHRA SCT030TCU
TAF LEBB 300500Z 3006/0106 20012G23KT 9999 FEW020 BKN040 TX18/3012Z TN04/0106Z 
     TEMPO 3006/3011 22020G33KT 
     PROB30 
     TEMPO 3006/3011 24024G43KT 
     BECMG 3009/3012 28015G25KT 
     TEMPO 3008/3019 4000 RA SHRA SCT025TCU 
     PROB40 
     TEMPO 3010/3018 34018G32KT 2500 TSRAGR BKN025CB 
     PROB30 
     TEMPO 3011/3014 1400 +RA BKN012 
     PROB30 
     TEMPO 3018/3021 34015G25KT SHRA TSGR SCT025CB 
     BECMG 3021/0101 22009KT
       
LEBG 301046Z 22026G37KT 9999 BKN018 08/07 Q1005
TAF AMD LEBG 301000Z 3010/3018 22020KT 9999 BKN030 
     TEMPO 3010/3018 4000 RA BKN012 OVC020 
     TEMPO 3010/3018 22028G48KT 
     PROB40 
     TEMPO 3012/3016 3000 SHRA SCT012CB
       
LEBA 301030Z 25010KT 220V290 9999 OVC046 17/08 Q1017
TAF LEBA 300800Z 3009/3018 25010KT 9999 SCT020 BKN035
       
LEVS 301030Z 20015KT 150V240 9999 -DZ SCT025 BKN040 11/05 Q1011
TAF LEVS 300800Z 3009/3018 22015KT CAVOK 
     TEMPO 3009/3018 22020G30KT 
     PROB40 
     TEMPO 3011/3018 4000 RA BR BKN012 
     PROB30 
     TEMPO 3015/3017 3000 SHRA SCT020TCU
       
GCFV 301030Z 05011KT 9999 SCT035 22/15 Q1020
TAF GCFV 300800Z 3009/0109 02014KT 9999 SCT035 TX24/3013Z TN18/0106Z
       
LEGT 301000Z 23016G26KT 9999 FEW040 11/05 Q1011
TAF LEGT 300800Z 3009/3018 24012KT CAVOK 
     TEMPO 3009/3018 23020G30KT 
     PROB40 
     TEMPO 3011/3018 4000 RA BR BKN012 
     PROB30 
     TEMPO 3015/3017 3000 SHRA SCT020TCU
       
LEGE 301030Z 20018G29KT 160V230 9999 DZ SCT016 BKN038 17/12 Q1010 REDZ
TAF LEGE 300500Z 3006/0106 21010KT 9999 FEW030 SCT040 TX17/3013Z TN09/3006Z 
     BECMG 3006/3009 18015KT 
     TEMPO 3009/3019 19020G35KT 
     TEMPO 3020/0102 4000 SHRA FEW020TCU OVC030 
     BECMG 3019/3021 VRB03KT
       
GCLP 301030Z 03021KT 9999 FEW025 SCT035 23/13 Q1020 NOSIG
TAF GCLP 300800Z 3009/0109 36016KT 9999 SCT035 TX24/3013Z TN17/0106Z
       
LEGR 301030Z 29012KT 260V340 9999 FEW030 15/09 Q1017
TAF LEGR 300800Z 3009/0109 27009KT 9999 SCT020 SCT035 TX20/3015Z TN09/0106Z 
     PROB40 
     TEMPO 3020/0105 BKN014
       
GCHI 301030Z 03014KT 350V070 9999 FEW018 BKN040 21/17 Q1021
TAF GCHI 300800Z 3009/0109 01012KT 9999 SCT030 TX23/3013Z TN19/0106Z
       
LEIB 301030Z 22013KT 9999 FEW013 BKN030 19/13 Q1014 NOSIG
TAF LEIB 300800Z 3009/0109 21010KT 9999 SCT020 TX19/3012Z TN12/0106Z 
     PROB30 
     TEMPO 3012/3018 22015G25KT 
     BECMG 3022/3024 30015KT 
     TEMPO 0101/0103 30015G25KT 
     BECMG 0103/0106 36012KT
       
LEAB 301000Z 25019KT 9999 FEW035 14/05 Q1014 NOSIG
TAF LEAB 300800Z 3009/3018 26010KT 9999 SCT030 
     TEMPO 3009/3018 26015G30KT
       
LEAL 301030Z 20007KT 120V260 9999 FEW020 21/12 Q1013 NOSIG
TAF LEAL 300500Z 3006/0106 VRB04KT 9999 BKN020 BKN030 TX24/3012Z TN11/3006Z 
     TEMPO 3006/3012 24008KT 
     BECMG 3010/3012 18015G25KT 
     BECMG 3020/3023 32012KT
       
LEAM 301030Z 23019KT 9999 FEW010 SCT025 18/15 Q1015
TAF LEAM 300800Z 3009/0109 23018KT 9999 SCT015 SCT025 TX20/3014Z TN14/0104Z 
     TEMPO 3011/3020 23022G32KT 
     BECMG 3020/3024 32006KT 
     BECMG 0103/0107 12010KT
       
TAF LEAO 300800Z 3009/3018 25012KT 9999 SCT025 
     TEMPO 3010/3018 26015G30KT 
     PROB40 
     TEMPO 3015/3018 RA
       
LEAS 301030Z 30016G27KT 270V330 9999 SCT025TCU SCT040 11/06 Q1005 TEMPO 3000 SHRA BKN020TCU
TAF LEAS 300800Z 3009/0109 26015G25KT 9999 SCT025 BKN045 TX12/3015Z TN06/0103Z 
     TEMPO 3009/3019 29020G35KT 3000 RA SHRA SCT030TCU 
     PROB40 
     TEMPO 3009/3016 3000 TSRAGR BKN014 BKN025CB 
     PROB40 
     TEMPO 3009/3015 30025G43KT 
     BECMG 3021/3024 20009KT
       
LEBA 301030Z 25010KT 220V290 9999 OVC046 17/08 Q1017
TAF LEBA 300800Z 3009/3018 25010KT 9999 SCT020 BKN035
       
LEBB 301030Z 32018G31KT 290V350 8000 -RA FEW015 SCT030 BKN045 10/07 Q1006 TEMPO 3000 SHRA SCT030TCU
TAF LEBB 300500Z 3006/0106 20012G23KT 9999 FEW020 BKN040 TX18/3012Z TN04/0106Z 
     TEMPO 3006/3011 22020G33KT 
     PROB30 
     TEMPO 3006/3011 24024G43KT 
     BECMG 3009/3012 28015G25KT 
     TEMPO 3008/3019 4000 RA SHRA SCT025TCU 
     PROB40 
     TEMPO 3010/3018 34018G32KT 2500 TSRAGR BKN025CB 
     PROB30 
     TEMPO 3011/3014 1400 +RA BKN012 
     PROB30 
     TEMPO 3018/3021 34015G25KT SHRA TSGR SCT025CB 
     BECMG 3021/0101 22009KT
       
LEBG 301046Z 22026G37KT 9999 BKN018 08/07 Q1005
TAF AMD LEBG 301000Z 3010/3018 22020KT 9999 BKN030 
     TEMPO 3010/3018 4000 RA BKN012 OVC020 
     TEMPO 3010/3018 22028G48KT 
     PROB40 
     TEMPO 3012/3016 3000 SHRA SCT012CB
       
LEBL 301030Z 21013KT 9999 FEW020 SCT049 17/14 Q1011 NOSIG
TAF LEBL 300500Z 3006/0106 22012KT 9999 FEW020 BKN030 TX19/3012Z TN12/3006Z 
     PROB30 
     TEMPO 3020/3024 SHRA BKN020 FEW025TCU 
     TEMPO 3006/3011 20012G22KT 
     TEMPO 3021/3024 30012KT 
     BECMG 0101/0103 VRB03KT
       
LEBT 301000Z AUTO 27013G25KT 220V330 9999 // NCD 21/09 Q1012
LEBZ 301040Z 26021KT 230V300 1500 RA OVC013 13/11 Q1015
TAF LEBZ 300500Z 3006/0106 22012KT 9999 SCT020 SCT040 TX19/3015Z TN06/0106Z 
     TEMPO 3009/3013 23016G28KT 
     PROB40 
     TEMPO 3010/3014 4000 RA BKN014 
     BECMG 3012/3014 29014KT 
     TEMPO 3013/3018 29016G28KT 
     BECMG 3019/3022 29004KT
       
LECH 301030Z 22014KT 180V250 9999 FEW020 19/06 Q1010
LECO 301030Z 29011G27KT 260V350 9000 SHRA FEW015 BKN030CB 08/05 Q1008 TEMPO 4000 SHGR SCT030CB
TAF LECO 300800Z 3009/0109 26009KT 9999 SCT025 SCT040 TX12/3015Z TN05/0103Z 
     TEMPO 3009/3018 29015G25KT RA SHRA SCT025TCU 
     PROB40 
     TEMPO 3009/3018 29020G35KT 
     PROB30 
     TEMPO 3009/3013 3000 TSRAGR BKN014 SCT020CB
       
LECV 301000Z 23013G23KT 9999 FEW010 BKN015 07/05 Q1011
TAF LECV 300800Z 3009/3018 23012KT 9999 SCT020 
     TEMPO 3009/3018 22020G30KT 
     PROB40 
     TEMPO 3011/3018 4000 RA BR BKN012 
     PROB30 
     TEMPO 3013/3018 3000 SHRA SCT012TCU
       
TAF LEDA 300800Z 3009/0109 08010KT 9999 SCT030 TX15/3013Z TN03/0106Z 
     BECMG 3010/3012 20012KT 
     TEMPO 3014/3018 17015G25KT 
     BECMG 3018/3020 28012KT 
     PROB30 
     TEMPO 3016/3020 4000 TSRA FEW030CB BKN031
       
LEGA 301000Z 33006KT 270V360 9999 FEW020 SCT030 15/08 Q1017
TAF LEGA 300800Z 3009/3018 34008KT 9999 SCT020 SCT040
       
LEGE 301030Z 20018G29KT 160V230 9999 DZ SCT016 BKN038 17/12 Q1010 REDZ
TAF LEGE 300500Z 3006/0106 21010KT 9999 FEW030 SCT040 TX17/3013Z TN09/3006Z 
     BECMG 3006/3009 18015KT 
     TEMPO 3009/3019 19020G35KT 
     TEMPO 3020/0102 4000 SHRA FEW020TCU OVC030 
     BECMG 3019/3021 VRB03KT
       
LEGR 301030Z 29012KT 260V340 9999 FEW030 15/09 Q1017
TAF LEGR 300800Z 3009/0109 27009KT 9999 SCT020 SCT035 TX20/3015Z TN09/0106Z 
     PROB40 
     TEMPO 3020/0105 BKN014
       
LEGT 301000Z 23016G26KT 9999 FEW040 11/05 Q1011
TAF LEGT 300800Z 3009/3018 24012KT CAVOK 
     TEMPO 3009/3018 23020G30KT 
     PROB40 
     TEMPO 3011/3018 4000 RA BR BKN012 
     PROB30 
     TEMPO 3015/3017 3000 SHRA SCT020TCU
       
LEHC 301030Z 09010KT 070V140 9999 BKN018 BKN057 14/10 Q1009
TAF LEHC 300800Z 3009/0109 10010KT 9999 BKN040 TX15/3013Z TN05/0106Z 
     PROB30 
     TEMPO 3014/3022 4000 TSRA BKN030 SCT040CB 
     BECMG 3011/3013 20012KT 
     TEMPO 3014/3017 24020G30KT 
     BECMG 3017/3020 32012KT
       
LEIB 301030Z 22013KT 9999 FEW013 BKN030 19/13 Q1014 NOSIG
TAF LEIB 300800Z 3009/0109 21010KT 9999 SCT020 TX19/3012Z TN12/0106Z 
     PROB30 
     TEMPO 3012/3018 22015G25KT 
     BECMG 3022/3024 30015KT 
     TEMPO 0101/0103 30015G25KT 
     BECMG 0103/0106 36012KT
       
LEJR 301030Z 23010KT 200V260 9999 BKN035 BKN050 19/10 Q1018
TAF LEJR 300500Z 3006/0106 VRB02KT 9999 SCT025 TX21/3015Z TN09/0106Z 
     BECMG 3009/3012 23012KT 
     BECMG 3020/3023 31006KT 
     PROB40 
     TEMPO 3017/3022 BKN014
       
LELC 301000Z 19013KT 160V230 9999 FEW020 20/14 Q1014 NOSIG
TAF LELC 300500Z 3006/0106 VRB02KT 9999 SCT020 TX22/3015Z TN13/3006Z 
     PROB30 
     TEMPO 3006/3008 BKN014 
     BECMG 3007/3010 21012KT 
     PROB30 
     TEMPO 3012/3016 21015G25KT 
     BECMG 3021/0101 33009KT
       
LELL 301030Z 19008KT 150V240 9999 FEW017 SCT025 BKN035 17/13 Q1011
TAF LELL 300800Z 3009/0109 VRB03KT 9999 FEW015 BKN030 TX19/3013Z TN07/0106Z 
     PROB30 
     TEMPO 3020/3024 4000 SHRA FEW020TCU BKN025 
     BECMG 3009/3011 19012G22KT 
     BECMG 3019/3022 27008KT
       
LELN 301000Z 28017KT 240V320 9999 FEW010 SCT040 05/01 Q1005
TAF LELN 300800Z 3009/3018 21017KT 9999 BKN015 
     TEMPO 3009/3018 RA BKN008 
     PROB40 
     TEMPO 3009/3015 3000 BR BKN004 
     BECMG 3011/3013 27020KT 
     TEMPO 3011/3017 26025G45KT 
     PROB30 
     TEMPO 3012/3017 3000 SHRA SCT010CB
       
LELO 301000Z 23012G23KT 190V290 9999 BKN060 16/06 Q1005 RERA
TAF LELO 300800Z 3009/3018 10015KT 9999 FEW020 
     BECMG 3010/3012 27010KT 
     TEMPO 3010/3018 25015G25KT 
     PROB30 
     TEMPO 3012/3018 RA BKN012
       
LEMD 301030Z 21016G33KT 9999 SCT035 13/05 Q1011 R88/19//95 NOSIG
TAF LEMD 300500Z 3006/0112 22012KT 9999 SCT030 TX14/3016Z TN05/0106Z 
     PROB30 
     TEMPO 3006/3009 3000 BR BKN010 
     TEMPO 3009/3019 22020G30KT 
     TEMPO 3011/3020 4000 RA BR BKN012 
     BECMG 3017/3019 28010KT
       
LEMG 301030Z 30003KT 240V350 9999 FEW020 SCT045 19/11 Q1017 NOSIG
TAF AMD LEMG 300609Z 3006/0106 29006KT 9999 SCT020 TX24/3015Z TN12/0103Z 
     TEMPO 3006/3008 2000 BR
       
LEMH 301030Z 21011KT 180V260 9999 BKN025 17/10 Q1015
TAF LEMH 300800Z 3009/0109 18009KT 9999 SCT020 TX17/3012Z TN09/0106Z 
     PROB40 
     TEMPO 3013/3023 20013G23KT 
     BECMG 0101/0103 36015KT
       
LEMO 301100Z 24012KT 200V280 9999 SCT039 BKN043 17/08 Q1017 NOSIG
TAF COR LEMO 300818Z 3009/3018 24012KT 9999 SCT025 BKN040 
     TEMPO 3013/3018 25015G25KT
       
LEPA 301030Z 23011KT 9999 FEW026 OVC030 18/11 Q1014 NOSIG
TAF LEPA 300500Z 3006/0106 VRB03KT 9999 SCT030 TX19/3012Z TN08/3006Z 
     PROB30 
     TEMPO 3006/3008 0800 FU FEW001 SCT020 
     BECMG 3008/3010 21012KT 
     TEMPO 3012/3019 21020KT 
     TEMPO 3019/3024 21006KT 
     BECMG 0100/0103 33012KT
       
LEPP 301030Z 16021G33KT 130V190 9999 -RA SCT040 BKN048 14/08 Q1005
TAF LEPP 300800Z 3009/0109 19015G25KT 9999 SCT030 BKN045 TX18/3012Z TN03/0103Z 
     TEMPO 3009/3016 19020G35KT 3000 RA SHRA SCT025TCU 
     BECMG 3015/3018 34010KT
       
LERI 301000Z VRB02KT 9999 FEW025 20/12 Q1013 NOSIG
TAF LERI 300800Z 3009/3018 VRB02KT 9999 FEW035 
     BECMG 3010/3013 20010KT 
     TEMPO 3016/3018 27008KT
       
LERS 301030Z 19006KT 150V230 9999 FEW017 BKN030 17/13 Q1011
TAF LERS 300800Z 3009/0109 VRB04KT 9999 FEW020 BKN030 TX18/3012Z TN09/0106Z 
     BECMG 3009/3011 18009KT 
     PROB30 
     TEMPO 3020/3024 SHRA BKN025 FEW030TCU 
     TEMPO 3018/3021 VRB03KT 
     BECMG 3021/3024 30015KT 
     TEMPO 3023/0106 30020G30KT
       
LERT 301000Z 24011KT 200V260 9999 FEW035 BKN050 18/09 Q1018 NOSIG
TAF LERT 300800Z 3009/3018 25010KT 9999 SCT025 BKN040 
     PROB30 
     TEMPO 3013/3018 24015G25KT
       
LESA 301030Z 25019KT 9999 SCT030 BKN038 10/07 Q1009
TAF COR LESA 300534Z 3006/0106 23018KT 9999 SCT012 SCT030 TX15/3015Z TN01/0106Z 
     TEMPO 3006/3008 23020G30KT 
     TEMPO 3008/3018 24025G43KT 
     PROB40 
     TEMPO 3006/3020 4000 RA OVC010 
     BECMG 3020/3022 29008KT
       
LESO 301030Z 22009KT 200V260 9000 RA SCT045 16/12 Q1004
TAF AMD LESO 301047Z 3010/0106 25009KT 9999 SCT025 BKN040 TX15/3012Z TN08/0106Z 
     TEMPO 3010/3018 28015G25KT 3000 RA SHRA SCT030TCU 
     PROB40 
     TEMPO 3010/3018 3000 TSRAGS BKN025CB 
     PROB30 
     TEMPO 3010/3015 28020G35KT 
     PROB30 
     TEMPO 3018/0106 27015G25KT SHRA SCT025TCU
       
LEST 301030Z 28011G24KT 240V350 9999 SCT025 SCT040TCU 10/03 Q1008 TEMPO SHRA
TAF LEST 300500Z 3006/0106 28015G25KT 9999 SCT015 BKN025 TX10/3015Z TN03/0106Z 
     TEMPO 3006/3013 26020G35KT RA SHRA BKN012 SCT025TCU 
     PROB40 
     TEMPO 3006/3010 22009KT 3000 RA BKN008 
     PROB30 
     TEMPO 3013/3016 34018G32KT SHRA SCT030TCU 
     BECMG 3021/3024 22008KT
       
LESU 301030Z 34003KT 300V020 9999 FEW003 BKN015 BKN020 10/06 Q1011
TAF AMD LESU 300900Z 3009/0109 VRB03KT 9999 BKN030 TX15/3013Z TNM00/0106Z 
     TEMPO 3009/3011 0500 BCFG FEW002 BKN020 
     PROB30 
     TEMPO 3009/3024 3000 TSRA BKN014 FEW020CB 
     TEMPO 3010/3018 20010G20KT
       
LETL 301030Z AUTO 21016KT 180V240 9999 BKN038/// OVC056/// 11/03 Q1012
LETO 301000Z 22020KT 9999 SCT035 12/06 Q1011 NOSIG
TAF LETO 300500Z 3006/0106 22012KT 9999 SCT030 TX14/3016Z TN05/0106Z 
     PROB30 
     TEMPO 3006/3009 3000 BR BKN010 
     TEMPO 3009/3019 22020G30KT 
     TEMPO 3011/3020 4000 RA BR BKN012 
     BECMG 3017/3019 28010KT
       
LEVC 301030Z 26017KT 9999 FEW025 21/08 Q1011 NOSIG
TAF AMD LEVC 300858Z 3008/0106 VRB04KT 9999 FEW040 TX26/3012Z TN08/0106Z 
     BECMG 3008/3010 26012KT 
     PROB40 
     TEMPO 3009/3018 26015G25KT 
     PROB30 
     TEMPO 3020/3022 SHRA FEW020TCU BKN030 
     BECMG 3023/0101 30006KT
       
LEVD 301030Z 24023G33KT 200V290 8000 RA SCT015 BKN020 OVC040 08/05 Q1007
TAF COR LEVD 300534Z 3006/0106 23015KT 9999 SCT030 TX12/3015Z TN01/0106Z 
     TEMPO 3006/3008 23015G25KT 
     TEMPO 3008/3018 24025G43KT 
     PROB40 
     TEMPO 3006/3020 4000 RA OVC010 
     BECMG 3021/3023 29008KT
       
LEVS 301030Z 20015KT 150V240 9999 -DZ SCT025 BKN040 11/05 Q1011
TAF LEVS 300800Z 3009/3018 22015KT CAVOK 
     TEMPO 3009/3018 22020G30KT 
     PROB40 
     TEMPO 3011/3018 4000 RA BR BKN012 
     PROB30 
     TEMPO 3015/3017 3000 SHRA SCT020TCU
       
LEVT 301030Z 22011G21KT 200V260 9999 -RA SCT025 OVC035 11/08 Q1005
TAF LEVT 300500Z 3006/0106 20012G22KT 9999 FEW020 BKN035 TX16/3014Z TN00/0106Z 
     PROB30 
     TEMPO 3006/3009 14015G25KT 
     PROB40 
     TEMPO 3006/3010 24020G32KT 4000 RA BKN014 
     TEMPO 3010/3015 26022G35KT 3000 RA SHRA BKN014 SCT025TCU 
     PROB30 
     TEMPO 3014/3017 SHRA TS SCT030CB 
     BECMG 3014/3018 36012G22KT 
     BECMG 3019/3022 VRB06KT
       
LEVX 301030Z 28012G23KT 240V340 9999 FEW033TCU SCT035 BKN045 11/05 Q1010 TEMPO SHRA
TAF AMD LEVX 300527Z 3006/0106 26012G22KT 9999 SCT012 BKN025 TX12/3015Z TN06/0106Z 
     TEMPO 3006/3013 28020G34KT 4000 SHRA BKN012 SCT020TCU 
     PROB40 
     TEMPO 3006/3010 2000 RA SHRA BKN008 BKN020TCU 
     PROB30 
     TEMPO 3006/3009 0800 BCFG BKN003 
     PROB30 
     TEMPO 3013/3016 32018G32KT SHRA SCT030TCU 
     BECMG 3021/3024 20008KT
       
LEXJ 301030Z 27020G34KT 240V300 9999 -RA FEW026 BKN044 10/05 Q1005
TAF LEXJ 300800Z 3009/0109 27015G25KT 9999 SCT030 BKN045 TX16/3012Z TN08/0103Z 
     TEMPO 3009/3019 28020G35KT 3000 RA SHRA SCT030TCU 
     PROB30 
     TEMPO 3009/3018 3000 TSRAGS BKN014 BKN025CB 
     BECMG 0100/0103 21009KT
       
LEZG 301030Z 21016KT 9999 SCT060 20/04 Q1008
TAF LEZG 300500Z 3006/0106 10010KT 9999 SCT050 TX23/3013Z TN09/3006Z 
     TEMPO 3016/3023 4000 SHRA SCT030TCU BKN040 
     BECMG 3008/3010 23010KT 
     TEMPO 3010/3016 22015G30KT 
     BECMG 3016/3018 30010KT 
     TEMPO 3016/3019 27015G25KT
       
LEZL 301030Z 22009KT 170V240 9999 FEW032 BKN045 18/11 Q1017 NOSIG
TAF COR LEZL 300818Z 3009/0109 23010KT 9999 SCT020 BKN030 TX20/3015Z TN09/0106Z 
     PROB40 
     TEMPO 3013/3018 23015G25KT 
     BECMG 3018/3022 32006KT
       
LEJR 301030Z 23010KT 200V260 9999 BKN035 BKN050 19/10 Q1018
TAF LEJR 300500Z 3006/0106 VRB02KT 9999 SCT025 TX21/3015Z TN09/0106Z 
     BECMG 3009/3012 23012KT 
     BECMG 3020/3023 31006KT 
     PROB40 
     TEMPO 3017/3022 BKN014
       
GCGM 301030Z VRB06G16KT 9999 FEW035 20/16 Q1021 RMK R09/VRB02KT ARP/VRB04G17KT
GCLA 301030Z 02011KT 350V050 9999 FEW030 BKN038 21/15 Q1022
TAF GCLA 300800Z 3009/0109 36008KT 9999 BKN030 TX23/3013Z TN16/0106Z 
     PROB30 
     TEMPO 3009/3012 3000 RA BKN014
       
GCRR 301030Z 34013G32KT 300V010 9999 FEW030 SCT035 23/14 Q1020
TAF GCRR 300800Z 3009/0109 02014KT 9999 SCT030 TX25/3013Z TN17/0106Z 
     PROB30 
     TEMPO 3014/3020 RA
       
LELN 301000Z 28017KT 240V320 9999 FEW010 SCT040 05/01 Q1005
TAF LELN 300800Z 3009/3018 21017KT 9999 BKN015 
     TEMPO 3009/3018 RA BKN008 
     PROB40 
     TEMPO 3009/3015 3000 BR BKN004 
     BECMG 3011/3013 27020KT 
     TEMPO 3011/3017 26025G45KT 
     PROB30 
     TEMPO 3012/3017 3000 SHRA SCT010CB
       
LEMG 301030Z 30003KT 240V350 9999 FEW020 SCT045 19/11 Q1017 NOSIG
TAF AMD LEMG 300609Z 3006/0106 29006KT 9999 SCT020 TX24/3015Z TN12/0103Z 
     TEMPO 3006/3008 2000 BR
       
GEML 301030Z 30009KT 240V340 9999 FEW017 BKN034 21/15 Q1018
TAF GEML 300800Z 3009/0109 27008KT 9999 FEW015 TX21/3014Z TN14/0104Z 
     TEMPO 3012/0103 27015G28KT
       
LEMH 301030Z 21011KT 180V260 9999 BKN025 17/10 Q1015
TAF LEMH 300800Z 3009/0109 18009KT 9999 SCT020 TX17/3012Z TN09/0106Z 
     PROB40 
     TEMPO 3013/3023 20013G23KT 
     BECMG 0101/0103 36015KT
       
LEAB 301000Z 25019KT 9999 FEW035 14/05 Q1014 NOSIG
TAF LEAB 300800Z 3009/3018 26010KT 9999 SCT030 
     TEMPO 3009/3018 26015G30KT
       
LEAL 301030Z 20007KT 120V260 9999 FEW020 21/12 Q1013 NOSIG
TAF LEAL 300500Z 3006/0106 VRB04KT 9999 BKN020 BKN030 TX24/3012Z TN11/3006Z 
     TEMPO 3006/3012 24008KT 
     BECMG 3010/3012 18015G25KT 
     BECMG 3020/3023 32012KT
       
LEAM 301030Z 23019KT 9999 FEW010 SCT025 18/15 Q1015
TAF LEAM 300800Z 3009/0109 23018KT 9999 SCT015 SCT025 TX20/3014Z TN14/0104Z 
     TEMPO 3011/3020 23022G32KT 
     BECMG 3020/3024 32006KT 
     BECMG 0103/0107 12010KT
       
TAF LEAO 300800Z 3009/3018 25012KT 9999 SCT025 
     TEMPO 3010/3018 26015G30KT 
     PROB40 
     TEMPO 3015/3018 RA
       
LEAS 301030Z 30016G27KT 270V330 9999 SCT025TCU SCT040 11/06 Q1005 TEMPO 3000 SHRA BKN020TCU
TAF LEAS 300800Z 3009/0109 26015G25KT 9999 SCT025 BKN045 TX12/3015Z TN06/0103Z 
     TEMPO 3009/3019 29020G35KT 3000 RA SHRA SCT030TCU 
     PROB40 
     TEMPO 3009/3016 3000 TSRAGR BKN014 BKN025CB 
     PROB40 
     TEMPO 3009/3015 30025G43KT 
     BECMG 3021/3024 20009KT
       
LEBA 301030Z 25010KT 220V290 9999 OVC046 17/08 Q1017
TAF LEBA 300800Z 3009/3018 25010KT 9999 SCT020 BKN035
       
LEBB 301030Z 32018G31KT 290V350 8000 -RA FEW015 SCT030 BKN045 10/07 Q1006 TEMPO 3000 SHRA SCT030TCU
TAF LEBB 300500Z 3006/0106 20012G23KT 9999 FEW020 BKN040 TX18/3012Z TN04/0106Z 
     TEMPO 3006/3011 22020G33KT 
     PROB30 
     TEMPO 3006/3011 24024G43KT 
     BECMG 3009/3012 28015G25KT 
     TEMPO 3008/3019 4000 RA SHRA SCT025TCU 
     PROB40 
     TEMPO 3010/3018 34018G32KT 2500 TSRAGR BKN025CB 
     PROB30 
     TEMPO 3011/3014 1400 +RA BKN012 
     PROB30 
     TEMPO 3018/3021 34015G25KT SHRA TSGR SCT025CB 
     BECMG 3021/0101 22009KT
       
LEBG 301046Z 22026G37KT 9999 BKN018 08/07 Q1005
TAF AMD LEBG 301000Z 3010/3018 22020KT 9999 BKN030 
     TEMPO 3010/3018 4000 RA BKN012 OVC020 
     TEMPO 3010/3018 22028G48KT 
     PROB40 
     TEMPO 3012/3016 3000 SHRA SCT012CB
       
LEBL 301030Z 21013KT 9999 FEW020 SCT049 17/14 Q1011 NOSIG
TAF LEBL 300500Z 3006/0106 22012KT 9999 FEW020 BKN030 TX19/3012Z TN12/3006Z 
     PROB30 
     TEMPO 3020/3024 SHRA BKN020 FEW025TCU 
     TEMPO 3006/3011 20012G22KT 
     TEMPO 3021/3024 30012KT 
     BECMG 0101/0103 VRB03KT
       
LEBT 301000Z AUTO 27013G25KT 220V330 9999 // NCD 21/09 Q1012
LEBZ 301040Z 26021KT 230V300 1500 RA OVC013 13/11 Q1015
TAF LEBZ 300500Z 3006/0106 22012KT 9999 SCT020 SCT040 TX19/3015Z TN06/0106Z 
     TEMPO 3009/3013 23016G28KT 
     PROB40 
     TEMPO 3010/3014 4000 RA BKN014 
     BECMG 3012/3014 29014KT 
     TEMPO 3013/3018 29016G28KT 
     BECMG 3019/3022 29004KT
       
LECH 301030Z 22014KT 180V250 9999 FEW020 19/06 Q1010
LECO 301030Z 29011G27KT 260V350 9000 SHRA FEW015 BKN030CB 08/05 Q1008 TEMPO 4000 SHGR SCT030CB
TAF LECO 300800Z 3009/0109 26009KT 9999 SCT025 SCT040 TX12/3015Z TN05/0103Z 
     TEMPO 3009/3018 29015G25KT RA SHRA SCT025TCU 
     PROB40 
     TEMPO 3009/3018 29020G35KT 
     PROB30 
     TEMPO 3009/3013 3000 TSRAGR BKN014 SCT020CB
       
LECV 301000Z 23013G23KT 9999 FEW010 BKN015 07/05 Q1011
TAF LECV 300800Z 3009/3018 23012KT 9999 SCT020 
     TEMPO 3009/3018 22020G30KT 
     PROB40 
     TEMPO 3011/3018 4000 RA BR BKN012 
     PROB30 
     TEMPO 3013/3018 3000 SHRA SCT012TCU
       
TAF LEDA 300800Z 3009/0109 08010KT 9999 SCT030 TX15/3013Z TN03/0106Z 
     BECMG 3010/3012 20012KT 
     TEMPO 3014/3018 17015G25KT 
     BECMG 3018/3020 28012KT 
     PROB30 
     TEMPO 3016/3020 4000 TSRA FEW030CB BKN031
       
LEGA 301000Z 33006KT 270V360 9999 FEW020 SCT030 15/08 Q1017
TAF LEGA 300800Z 3009/3018 34008KT 9999 SCT020 SCT040
       
LEGE 301030Z 20018G29KT 160V230 9999 DZ SCT016 BKN038 17/12 Q1010 REDZ
TAF LEGE 300500Z 3006/0106 21010KT 9999 FEW030 SCT040 TX17/3013Z TN09/3006Z 
     BECMG 3006/3009 18015KT 
     TEMPO 3009/3019 19020G35KT 
     TEMPO 3020/0102 4000 SHRA FEW020TCU OVC030 
     BECMG 3019/3021 VRB03KT
       
LEGR 301030Z 29012KT 260V340 9999 FEW030 15/09 Q1017
TAF LEGR 300800Z 3009/0109 27009KT 9999 SCT020 SCT035 TX20/3015Z TN09/0106Z 
     PROB40 
     TEMPO 3020/0105 BKN014
       
LEGT 301000Z 23016G26KT 9999 FEW040 11/05 Q1011
TAF LEGT 300800Z 3009/3018 24012KT CAVOK 
     TEMPO 3009/3018 23020G30KT 
     PROB40 
     TEMPO 3011/3018 4000 RA BR BKN012 
     PROB30 
     TEMPO 3015/3017 3000 SHRA SCT020TCU
       
LEHC 301030Z 09010KT 070V140 9999 BKN018 BKN057 14/10 Q1009
TAF LEHC 300800Z 3009/0109 10010KT 9999 BKN040 TX15/3013Z TN05/0106Z 
     PROB30 
     TEMPO 3014/3022 4000 TSRA BKN030 SCT040CB 
     BECMG 3011/3013 20012KT 
     TEMPO 3014/3017 24020G30KT 
     BECMG 3017/3020 32012KT
       
LEIB 301030Z 22013KT 9999 FEW013 BKN030 19/13 Q1014 NOSIG
TAF LEIB 300800Z 3009/0109 21010KT 9999 SCT020 TX19/3012Z TN12/0106Z 
     PROB30 
     TEMPO 3012/3018 22015G25KT 
     BECMG 3022/3024 30015KT 
     TEMPO 0101/0103 30015G25KT 
     BECMG 0103/0106 36012KT
       
LEJR 301030Z 23010KT 200V260 9999 BKN035 BKN050 19/10 Q1018
TAF LEJR 300500Z 3006/0106 VRB02KT 9999 SCT025 TX21/3015Z TN09/0106Z 
     BECMG 3009/3012 23012KT 
     BECMG 3020/3023 31006KT 
     PROB40 
     TEMPO 3017/3022 BKN014
       
LELC 301000Z 19013KT 160V230 9999 FEW020 20/14 Q1014 NOSIG
TAF LELC 300500Z 3006/0106 VRB02KT 9999 SCT020 TX22/3015Z TN13/3006Z 
     PROB30 
     TEMPO 3006/3008 BKN014 
     BECMG 3007/3010 21012KT 
     PROB30 
     TEMPO 3012/3016 21015G25KT 
     BECMG 3021/0101 33009KT
       
LELL 301030Z 19008KT 150V240 9999 FEW017 SCT025 BKN035 17/13 Q1011
TAF LELL 300800Z 3009/0109 VRB03KT 9999 FEW015 BKN030 TX19/3013Z TN07/0106Z 
     PROB30 
     TEMPO 3020/3024 4000 SHRA FEW020TCU BKN025 
     BECMG 3009/3011 19012G22KT 
     BECMG 3019/3022 27008KT
       
LELN 301000Z 28017KT 240V320 9999 FEW010 SCT040 05/01 Q1005
TAF LELN 300800Z 3009/3018 21017KT 9999 BKN015 
     TEMPO 3009/3018 RA BKN008 
     PROB40 
     TEMPO 3009/3015 3000 BR BKN004 
     BECMG 3011/3013 27020KT 
     TEMPO 3011/3017 26025G45KT 
     PROB30 
     TEMPO 3012/3017 3000 SHRA SCT010CB
       
LELO 301000Z 23012G23KT 190V290 9999 BKN060 16/06 Q1005 RERA
TAF LELO 300800Z 3009/3018 10015KT 9999 FEW020 
     BECMG 3010/3012 27010KT 
     TEMPO 3010/3018 25015G25KT 
     PROB30 
     TEMPO 3012/3018 RA BKN012
       
LEMD 301030Z 21016G33KT 9999 SCT035 13/05 Q1011 R88/19//95 NOSIG
TAF LEMD 300500Z 3006/0112 22012KT 9999 SCT030 TX14/3016Z TN05/0106Z 
     PROB30 
     TEMPO 3006/3009 3000 BR BKN010 
     TEMPO 3009/3019 22020G30KT 
     TEMPO 3011/3020 4000 RA BR BKN012 
     BECMG 3017/3019 28010KT
       
LEMG 301030Z 30003KT 240V350 9999 FEW020 SCT045 19/11 Q1017 NOSIG
TAF AMD LEMG 300609Z 3006/0106 29006KT 9999 SCT020 TX24/3015Z TN12/0103Z 
     TEMPO 3006/3008 2000 BR
       
LEMH 301030Z 21011KT 180V260 9999 BKN025 17/10 Q1015
TAF LEMH 300800Z 3009/0109 18009KT 9999 SCT020 TX17/3012Z TN09/0106Z 
     PROB40 
     TEMPO 3013/3023 20013G23KT 
     BECMG 0101/0103 36015KT
       
LEMO 301100Z 24012KT 200V280 9999 SCT039 BKN043 17/08 Q1017 NOSIG
TAF COR LEMO 300818Z 3009/3018 24012KT 9999 SCT025 BKN040 
     TEMPO 3013/3018 25015G25KT
       
LEPA 301030Z 23011KT 9999 FEW026 OVC030 18/11 Q1014 NOSIG
TAF LEPA 300500Z 3006/0106 VRB03KT 9999 SCT030 TX19/3012Z TN08/3006Z 
     PROB30 
     TEMPO 3006/3008 0800 FU FEW001 SCT020 
     BECMG 3008/3010 21012KT 
     TEMPO 3012/3019 21020KT 
     TEMPO 3019/3024 21006KT 
     BECMG 0100/0103 33012KT
       
LEPP 301030Z 16021G33KT 130V190 9999 -RA SCT040 BKN048 14/08 Q1005
TAF LEPP 300800Z 3009/0109 19015G25KT 9999 SCT030 BKN045 TX18/3012Z TN03/0103Z 
     TEMPO 3009/3016 19020G35KT 3000 RA SHRA SCT025TCU 
     BECMG 3015/3018 34010KT
       
LERI 301000Z VRB02KT 9999 FEW025 20/12 Q1013 NOSIG
TAF LERI 300800Z 3009/3018 VRB02KT 9999 FEW035 
     BECMG 3010/3013 20010KT 
     TEMPO 3016/3018 27008KT
       
LERS 301030Z 19006KT 150V230 9999 FEW017 BKN030 17/13 Q1011
TAF LERS 300800Z 3009/0109 VRB04KT 9999 FEW020 BKN030 TX18/3012Z TN09/0106Z 
     BECMG 3009/3011 18009KT 
     PROB30 
     TEMPO 3020/3024 SHRA BKN025 FEW030TCU 
     TEMPO 3018/3021 VRB03KT 
     BECMG 3021/3024 30015KT 
     TEMPO 3023/0106 30020G30KT
       
LERT 301000Z 24011KT 200V260 9999 FEW035 BKN050 18/09 Q1018 NOSIG
TAF LERT 300800Z 3009/3018 25010KT 9999 SCT025 BKN040 
     PROB30 
     TEMPO 3013/3018 24015G25KT
       
LESA 301030Z 25019KT 9999 SCT030 BKN038 10/07 Q1009
TAF COR LESA 300534Z 3006/0106 23018KT 9999 SCT012 SCT030 TX15/3015Z TN01/0106Z 
     TEMPO 3006/3008 23020G30KT 
     TEMPO 3008/3018 24025G43KT 
     PROB40 
     TEMPO 3006/3020 4000 RA OVC010 
     BECMG 3020/3022 29008KT
       
LESO 301030Z 22009KT 200V260 9000 RA SCT045 16/12 Q1004
TAF AMD LESO 301047Z 3010/0106 25009KT 9999 SCT025 BKN040 TX15/3012Z TN08/0106Z 
     TEMPO 3010/3018 28015G25KT 3000 RA SHRA SCT030TCU 
     PROB40 
     TEMPO 3010/3018 3000 TSRAGS BKN025CB 
     PROB30 
     TEMPO 3010/3015 28020G35KT 
     PROB30 
     TEMPO 3018/0106 27015G25KT SHRA SCT025TCU
       
LEST 301030Z 28011G24KT 240V350 9999 SCT025 SCT040TCU 10/03 Q1008 TEMPO SHRA
TAF LEST 300500Z 3006/0106 28015G25KT 9999 SCT015 BKN025 TX10/3015Z TN03/0106Z 
     TEMPO 3006/3013 26020G35KT RA SHRA BKN012 SCT025TCU 
     PROB40 
     TEMPO 3006/3010 22009KT 3000 RA BKN008 
     PROB30 
     TEMPO 3013/3016 34018G32KT SHRA SCT030TCU 
     BECMG 3021/3024 22008KT
       
LESU 301030Z 34003KT 300V020 9999 FEW003 BKN015 BKN020 10/06 Q1011
TAF AMD LESU 300900Z 3009/0109 VRB03KT 9999 BKN030 TX15/3013Z TNM00/0106Z 
     TEMPO 3009/3011 0500 BCFG FEW002 BKN020 
     PROB30 
     TEMPO 3009/3024 3000 TSRA BKN014 FEW020CB 
     TEMPO 3010/3018 20010G20KT
       
LETL 301030Z AUTO 21016KT 180V240 9999 BKN038/// OVC056/// 11/03 Q1012
LETO 301000Z 22020KT 9999 SCT035 12/06 Q1011 NOSIG
TAF LETO 300500Z 3006/0106 22012KT 9999 SCT030 TX14/3016Z TN05/0106Z 
     PROB30 
     TEMPO 3006/3009 3000 BR BKN010 
     TEMPO 3009/3019 22020G30KT 
     TEMPO 3011/3020 4000 RA BR BKN012 
     BECMG 3017/3019 28010KT
       
LEVC 301030Z 26017KT 9999 FEW025 21/08 Q1011 NOSIG
TAF AMD LEVC 300858Z 3008/0106 VRB04KT 9999 FEW040 TX26/3012Z TN08/0106Z 
     BECMG 3008/3010 26012KT 
     PROB40 
     TEMPO 3009/3018 26015G25KT 
     PROB30 
     TEMPO 3020/3022 SHRA FEW020TCU BKN030 
     BECMG 3023/0101 30006KT
       
LEVD 301030Z 24023G33KT 200V290 8000 RA SCT015 BKN020 OVC040 08/05 Q1007
TAF COR LEVD 300534Z 3006/0106 23015KT 9999 SCT030 TX12/3015Z TN01/0106Z 
     TEMPO 3006/3008 23015G25KT 
     TEMPO 3008/3018 24025G43KT 
     PROB40 
     TEMPO 3006/3020 4000 RA OVC010 
     BECMG 3021/3023 29008KT
       
LEVS 301030Z 20015KT 150V240 9999 -DZ SCT025 BKN040 11/05 Q1011
TAF LEVS 300800Z 3009/3018 22015KT CAVOK 
     TEMPO 3009/3018 22020G30KT 
     PROB40 
     TEMPO 3011/3018 4000 RA BR BKN012 
     PROB30 
     TEMPO 3015/3017 3000 SHRA SCT020TCU
       
LEVT 301030Z 22011G21KT 200V260 9999 -RA SCT025 OVC035 11/08 Q1005
TAF LEVT 300500Z 3006/0106 20012G22KT 9999 FEW020 BKN035 TX16/3014Z TN00/0106Z 
     PROB30 
     TEMPO 3006/3009 14015G25KT 
     PROB40 
     TEMPO 3006/3010 24020G32KT 4000 RA BKN014 
     TEMPO 3010/3015 26022G35KT 3000 RA SHRA BKN014 SCT025TCU 
     PROB30 
     TEMPO 3014/3017 SHRA TS SCT030CB 
     BECMG 3014/3018 36012G22KT 
     BECMG 3019/3022 VRB06KT
       
LEVX 301030Z 28012G23KT 240V340 9999 FEW033TCU SCT035 BKN045 11/05 Q1010 TEMPO SHRA
TAF AMD LEVX 300527Z 3006/0106 26012G22KT 9999 SCT012 BKN025 TX12/3015Z TN06/0106Z 
     TEMPO 3006/3013 28020G34KT 4000 SHRA BKN012 SCT020TCU 
     PROB40 
     TEMPO 3006/3010 2000 RA SHRA BKN008 BKN020TCU 
     PROB30 
     TEMPO 3006/3009 0800 BCFG BKN003 
     PROB30 
     TEMPO 3013/3016 32018G32KT SHRA SCT030TCU 
     BECMG 3021/3024 20008KT
       
LEXJ 301030Z 27020G34KT 240V300 9999 -RA FEW026 BKN044 10/05 Q1005
TAF LEXJ 300800Z 3009/0109 27015G25KT 9999 SCT030 BKN045 TX16/3012Z TN08/0103Z 
     TEMPO 3009/3019 28020G35KT 3000 RA SHRA SCT030TCU 
     PROB30 
     TEMPO 3009/3018 3000 TSRAGS BKN014 BKN025CB 
     BECMG 0100/0103 21009KT
       
LEZG 301030Z 21016KT 9999 SCT060 20/04 Q1008
TAF LEZG 300500Z 3006/0106 10010KT 9999 SCT050 TX23/3013Z TN09/3006Z 
     TEMPO 3016/3023 4000 SHRA SCT030TCU BKN040 
     BECMG 3008/3010 23010KT 
     TEMPO 3010/3016 22015G30KT 
     BECMG 3016/3018 30010KT 
     TEMPO 3016/3019 27015G25KT
       
LEZL 301030Z 22009KT 170V240 9999 FEW032 BKN045 18/11 Q1017 NOSIG
TAF COR LEZL 300818Z 3009/0109 23010KT 9999 SCT020 BKN030 TX20/3015Z TN09/0106Z 
     PROB40 
     TEMPO 3013/3018 23015G25KT 
     BECMG 3018/3022 32006KT
       
LEMO 301100Z 24012KT 200V280 9999 SCT039 BKN043 17/08 Q1017 NOSIG
TAF COR LEMO 300818Z 3009/3018 24012KT 9999 SCT025 BKN040 
     TEMPO 3013/3018 25015G25KT
       
LEPP 301030Z 16021G33KT 130V190 9999 -RA SCT040 BKN048 14/08 Q1005
TAF LEPP 300800Z 3009/0109 19015G25KT 9999 SCT030 BKN045 TX18/3012Z TN03/0103Z 
     TEMPO 3009/3016 19020G35KT 3000 RA SHRA SCT025TCU 
     BECMG 3015/3018 34010KT
       
LERS 301030Z 19006KT 150V230 9999 FEW017 BKN030 17/13 Q1011
TAF LERS 300800Z 3009/0109 VRB04KT 9999 FEW020 BKN030 TX18/3012Z TN09/0106Z 
     BECMG 3009/3011 18009KT 
     PROB30 
     TEMPO 3020/3024 SHRA BKN025 FEW030TCU 
     TEMPO 3018/3021 VRB03KT 
     BECMG 3021/3024 30015KT 
     TEMPO 3023/0106 30020G30KT
       
LERT 301000Z 24011KT 200V260 9999 FEW035 BKN050 18/09 Q1018 NOSIG
TAF LERT 300800Z 3009/3018 25010KT 9999 SCT025 BKN040 
     PROB30 
     TEMPO 3013/3018 24015G25KT
       
LESA 301030Z 25019KT 9999 SCT030 BKN038 10/07 Q1009
TAF COR LESA 300534Z 3006/0106 23018KT 9999 SCT012 SCT030 TX15/3015Z TN01/0106Z 
     TEMPO 3006/3008 23020G30KT 
     TEMPO 3008/3018 24025G43KT 
     PROB40 
     TEMPO 3006/3020 4000 RA OVC010 
     BECMG 3020/3022 29008KT
       
LESO 301030Z 22009KT 200V260 9000 RA SCT045 16/12 Q1004
TAF AMD LESO 301047Z 3010/0106 25009KT 9999 SCT025 BKN040 TX15/3012Z TN08/0106Z 
     TEMPO 3010/3018 28015G25KT 3000 RA SHRA SCT030TCU 
     PROB40 
     TEMPO 3010/3018 3000 TSRAGS BKN025CB 
     PROB30 
     TEMPO 3010/3015 28020G35KT 
     PROB30 
     TEMPO 3018/0106 27015G25KT SHRA SCT025TCU
       
LEXJ 301030Z 27020G34KT 240V300 9999 -RA FEW026 BKN044 10/05 Q1005
TAF LEXJ 300800Z 3009/0109 27015G25KT 9999 SCT030 BKN045 TX16/3012Z TN08/0103Z 
     TEMPO 3009/3019 28020G35KT 3000 RA SHRA SCT030TCU 
     PROB30 
     TEMPO 3009/3018 3000 TSRAGS BKN014 BKN025CB 
     BECMG 0100/0103 21009KT
       
LEST 301030Z 28011G24KT 240V350 9999 SCT025 SCT040TCU 10/03 Q1008 TEMPO SHRA
TAF LEST 300500Z 3006/0106 28015G25KT 9999 SCT015 BKN025 TX10/3015Z TN03/0106Z 
     TEMPO 3006/3013 26020G35KT RA SHRA BKN012 SCT025TCU 
     PROB40 
     TEMPO 3006/3010 22009KT 3000 RA BKN008 
     PROB30 
     TEMPO 3013/3016 34018G32KT SHRA SCT030TCU 
     BECMG 3021/3024 22008KT
       
LESU 301030Z 34003KT 300V020 9999 FEW003 BKN015 BKN020 10/06 Q1011
TAF AMD LESU 300900Z 3009/0109 VRB03KT 9999 BKN030 TX15/3013Z TNM00/0106Z 
     TEMPO 3009/3011 0500 BCFG FEW002 BKN020 
     PROB30 
     TEMPO 3009/3024 3000 TSRA BKN014 FEW020CB 
     TEMPO 3010/3018 20010G20KT
       
LEZL 301030Z 22009KT 170V240 9999 FEW032 BKN045 18/11 Q1017 NOSIG
TAF COR LEZL 300818Z 3009/0109 23010KT 9999 SCT020 BKN030 TX20/3015Z TN09/0106Z 
     PROB40 
     TEMPO 3013/3018 23015G25KT 
     BECMG 3018/3022 32006KT
       
LEBZ 301040Z 26021KT 230V300 1500 RA OVC013 13/11 Q1015
TAF LEBZ 300500Z 3006/0106 22012KT 9999 SCT020 SCT040 TX19/3015Z TN06/0106Z 
     TEMPO 3009/3013 23016G28KT 
     PROB40 
     TEMPO 3010/3014 4000 RA BKN014 
     BECMG 3012/3014 29014KT 
     TEMPO 3013/3018 29016G28KT 
     BECMG 3019/3022 29004KT
       
GCXO 301030Z 32015KT 300V010 9999 FEW010 SCT015 18/12 Q1022 NOSIG
TAF GCXO 300800Z 3009/0109 31012KT 9999 SCT010 TX21/3013Z TN13/0106Z 
     TEMPO 3014/3020 34015G25KT
       
GCTS 301030Z 08022KT 9999 FEW025 22/14 Q1020 NOSIG
TAF GCTS 300800Z 3009/0109 06007KT 9999 SCT035 TX25/3013Z TN18/0106Z 
     BECMG 3010/3011 08018KT
       
LETO 301000Z 22020KT 9999 SCT035 12/06 Q1011 NOSIG
TAF LETO 300500Z 3006/0106 22012KT 9999 SCT030 TX14/3016Z TN05/0106Z 
     PROB30 
     TEMPO 3006/3009 3000 BR BKN010 
     TEMPO 3009/3019 22020G30KT 
     TEMPO 3011/3020 4000 RA BR BKN012 
     BECMG 3017/3019 28010KT
       
LEVC 301030Z 26017KT 9999 FEW025 21/08 Q1011 NOSIG
TAF AMD LEVC 300858Z 3008/0106 VRB04KT 9999 FEW040 TX26/3012Z TN08/0106Z 
     BECMG 3008/3010 26012KT 
     PROB40 
     TEMPO 3009/3018 26015G25KT 
     PROB30 
     TEMPO 3020/3022 SHRA FEW020TCU BKN030 
     BECMG 3023/0101 30006KT
       
LEVD 301030Z 24023G33KT 200V290 8000 RA SCT015 BKN020 OVC040 08/05 Q1007
TAF COR LEVD 300534Z 3006/0106 23015KT 9999 SCT030 TX12/3015Z TN01/0106Z 
     TEMPO 3006/3008 23015G25KT 
     TEMPO 3008/3018 24025G43KT 
     PROB40 
     TEMPO 3006/3020 4000 RA OVC010 
     BECMG 3021/3023 29008KT
       
LEVX 301030Z 28012G23KT 240V340 9999 FEW033TCU SCT035 BKN045 11/05 Q1010 TEMPO SHRA
TAF AMD LEVX 300527Z 3006/0106 26012G22KT 9999 SCT012 BKN025 TX12/3015Z TN06/0106Z 
     TEMPO 3006/3013 28020G34KT 4000 SHRA BKN012 SCT020TCU 
     PROB40 
     TEMPO 3006/3010 2000 RA SHRA BKN008 BKN020TCU 
     PROB30 
     TEMPO 3006/3009 0800 BCFG BKN003 
     PROB30 
     TEMPO 3013/3016 32018G32KT SHRA SCT030TCU 
     BECMG 3021/3024 20008KT
       
LEVT 301030Z 22011G21KT 200V260 9999 -RA SCT025 OVC035 11/08 Q1005
TAF LEVT 300500Z 3006/0106 20012G22KT 9999 FEW020 BKN035 TX16/3014Z TN00/0106Z 
     PROB30 
     TEMPO 3006/3009 14015G25KT 
     PROB40 
     TEMPO 3006/3010 24020G32KT 4000 RA BKN014 
     TEMPO 3010/3015 26022G35KT 3000 RA SHRA BKN014 SCT025TCU 
     PROB30 
     TEMPO 3014/3017 SHRA TS SCT030CB 
     BECMG 3014/3018 36012G22KT 
     BECMG 3019/3022 VRB06KT
       
LEZG 301030Z 21016KT 9999 SCT060 20/04 Q1008
TAF LEZG 300500Z 3006/0106 10010KT 9999 SCT050 TX23/3013Z TN09/3006Z 
     TEMPO 3016/3023 4000 SHRA SCT030TCU BKN040 
     BECMG 3008/3010 23010KT 
     TEMPO 3010/3016 22015G30KT 
     BECMG 3016/3018 30010KT 
     TEMPO 3016/3019 27015G25KT